Zurück zum Katalog

WILDFIRE 8

AktivWissenschaftPO
NORAD 57768·PAYLOAD·🇺🇸 United States

Gestartet Sep 2, 2023 von Vandenberg Space Force Base

Loading…

Nächste Überflüge (nächste 24 Stunden)

TLE

AktuellSource: Space-Track

Epoche: Sep 14, 2026, 08:50 UTC

1 57768U 23133M   26257.36814000  .00000077  00000-0  57724-4 0  9992
2 57768  80.9919 281.2908 0006976 126.8818 233.2978 13.85454869153380

Verfolge WILDFIRE 8 in Echtzeit mit AllMySat

Download on the App Store